This is the latest recevied weather packets stored in our database for station/object N4CRH-13. If no packets are shown the sender has not sent any weather packets the latest 10 day(s).
| Time | Temp. | Humidity | Pressure | Rain* | Wind** | Luminosity | Snow |
|---|---|---|---|---|---|---|---|
| 1777603531 | 1.11° C | 98% | 1298.6 hPa | 0 mm | - | 0 W/m² | - |
| 1777603226 | 1.11° C | 98% | 1298.6 hPa | 0 mm | - | 0 W/m² | - |
| 1777602922 | 1.11° C | 98% | 1298.6 hPa | 0 mm | - | 0 W/m² | - |
| 1777602618 | 1.11° C | 98% | 1298.2 hPa | 0 mm | - | 0 W/m² | - |
| 1777602313 | 1.11° C | 97% | 1298.2 hPa | 0 mm | - | 0 W/m² | - |
| 1777602009 | 1.11° C | 97% | 1298.4 hPa | 0 mm | - | 0 W/m² | - |
| 1777601704 | 1.67° C | 97% | 1298.2 hPa | 0 mm | - | 0 W/m² | - |
| 1777600489 | 1.67° C | 97% | 1298.1 hPa | 0 mm | - | 1 W/m² | - |
| 1777586213 | 1.11° C | 98% | 1297.8 hPa | 0 mm | - | 44 W/m² | - |
| 1777585302 | 1.11° C | 97% | 1297.8 hPa | 0 mm | - | 48 W/m² | - |
| 1777585002 | 1.11° C | 97% | 1297.6 hPa | 0 mm | - | 36 W/m² | - |
| 1777584699 | 1.11° C | 97% | 1297.5 hPa | 0 mm | - | 34 W/m² | - |
| 1777583786 | 1.11° C | 97% | 1297.9 hPa | 0 mm | - | 31 W/m² | - |
| 1777583486 | 1.11° C | 97% | 1297.9 hPa | 0 mm | - | 39 W/m² | - |
| 1777583181 | 1.11° C | 96% | 1298 hPa | 0 mm | - | 55 W/m² | - |
| 1777582269 | 1.11° C | 96% | 1297.8 hPa | 0 mm | - | 83 W/m² | - |
| 1777581355 | 1.11° C | 96% | 1297.8 hPa | 1.78 mm | - | 101 W/m² | - |
| 1777581051 | 1.11° C | 96% | 1297.9 hPa | 1.78 mm | - | 93 W/m² | - |
| 1777580750 | 1.11° C | 96% | 1297.8 hPa | 0 mm | - | 108 W/m² | - |
| 1777580448 | 1.11° C | 96% | 1297.8 hPa | 0 mm | - | 92 W/m² | - |
| 1777580142 | 1.11° C | 96% | 1297.8 hPa | 1.27 mm | - | 87 W/m² | - |
| 1777579839 | 0.56° C | 96% | 1297.5 hPa | 1.27 mm | - | 120 W/m² | - |
| 1777579538 | 1.11° C | 96% | 1297.6 hPa | 0 mm | - | 73 W/m² | - |
| 1777579233 | 1.11° C | 96% | 1297.8 hPa | 1.78 mm | - | 82 W/m² | - |
| 1777578624 | 1.11° C | 95% | 1297.8 hPa | 0 mm | - | 122 W/m² | - |
* Rain latest hour (hover to see other rain measurements)
** Current wind speed in m/s (hover to see current wind gust speed)